Change the Weather History Date:

Monday, October 29, 2012

  Actual Average Record
Temperature  
Mean Temperature 8 °F -  
Max Temperature 15 °F 23 °F 37 °F (2005)
Min Temperature 2 °F 13 °F 2 °F (2012)
Degree Days  
Heating Degree Days 56    
Moisture  
Dew Point -2 °F    
Average Humidity 61    
Maximum Humidity 85    
Minimum Humidity 9    
Precipitation  
Precipitation 0.00 in - - ()
Sea Level Pressure  
Sea Level Pressure 29.65 in    
Wind  
Wind Speed 14 mph ()    
Max Wind Speed 40 mph    
Max Gust Speed -    
Visibility 6.1 miles    
Events Fog , Snow    
Averages and records for this station are not official NWS values.
T = Trace of Precipitation, MM = Missing Value Source: Averaged Metar Reports

Daily Weather History Graph

Daily Weather History Graph

Search for Another Location

Airport or City:

Trip Planner

Search our weather history database for the weather conditions in past years. The results will help you decide how hot, cold, wet, or windy it might be!

Date:

Astronomy

Oct. 29, 2012 Rise Set
Actual Time 7:05 AM CET 5:19 PM CET
Civil Twilight 6:34 AM CET 5:50 PM CET
Nautical Twilight 5:59 AM CET 6:25 PM CET
Astronomical Twilight 5:24 AM CET 7:00 PM CET
Moon 5:00 PM CET (10/29) 6:41 AM CET (10/29)
Length of Visible Light 11h 15m
Length of Day
10h 13m
Full, 100% of the Moon is Illuminated
Oct 29
Full
Oct 29
Full
Nov 7
Last Quarter
Nov 13
New
Nov 20
First Quarter

Hourly Weather History & Observations

Time (CET) Temp. Windchill Dew Point Humidity Pressure Visibility Wind Dir Wind Speed Gust Speed Precip Events Conditions
12:55 AM 5.0 °F -2.1 °F 1.4 °F 85% 29.53 in 0.6 mi ENE 3.5 mph - N/A Fog Light Freezing Fog
1:00 AM 6 °F - 1 °F 70%  in 1 mi ENE 3.5 mph - - Fog Heavy Fog
1:55 AM 6.8 °F -8.6 °F 3.2 °F 85% 29.53 in 6.2 mi NE 11.5 mph - N/A   Scattered Clouds
2:55 AM 8.6 °F -1.3 °F 3.2 °F 79% 29.50 in 6.2 mi NE 5.8 mph - N/A   Scattered Clouds
3:55 AM 8.6 °F -9.5 °F 3.2 °F 79% 29.56 in 6.2 mi ENE 17.3 mph - N/A   Scattered Clouds
4:00 AM 9 °F - 4 °F 71%  in 6 mi ENE 17.3 mph - -   Partly Cloudy
5:55 AM 8.6 °F -6.3 °F 3.2 °F 79% 29.56 in 6.2 mi ENE 11.5 mph - N/A   Partly Cloudy
6:55 AM 8.6 °F -7.7 °F 3.2 °F 79% 29.56 in - ENE 13.8 mph - N/A   Clear
7:00 AM 8 °F - 3 °F 71%  in 9 mi ENE 13.8 mph - -   Partly Cloudy
7:55 AM 8.6 °F -9.5 °F 5.0 °F 85% 29.59 in - ENE 17.3 mph - N/A   Clear
8:55 AM 8.6 °F -11.9 °F 5.0 °F 85% 29.62 in - East 23.0 mph - N/A   Clear
9:55 AM 8.6 °F -16.8 °F 5.0 °F 85% 29.62 in 6.2 mi ENE 40.3 mph - N/A Snow Light Low Drifting Snow
11:55 AM 10.4 °F -9.5 °F 6.8 °F 85% 29.65 in - ENE 23.0 mph - N/A   Clear
12:55 PM 8.6 °F -16.8 °F 5.0 °F 85% 29.65 in 6.2 mi ENE 40.3 mph - N/A Snow Light Low Drifting Snow
1:00 PM 9 °F - 5 °F 74%  in 31 mi ENE 40.3 mph - - Snow Low Drifting Snow
1:55 PM 8.6 °F -3.7 °F 3.2 °F 79% 29.65 in 6.2 mi ENE 8.1 mph - N/A   Partly Cloudy
2:55 PM 8.6 °F -9.5 °F 3.2 °F 79% 29.65 in 6.2 mi ENE 17.3 mph - N/A   Partly Cloudy
3:55 PM 10.4 °F -11.4 °F 1.4 °F 67% 29.68 in 6.2 mi ENE 28.8 mph - N/A   Partly Cloudy
4:00 PM 10 °F - 2 °F 56%  in 25 mi ENE 28.8 mph - -   Scattered Clouds
4:55 PM 10.4 °F -7.2 °F -0.4 °F 62% 29.68 in 6.2 mi NE 17.3 mph - N/A   Partly Cloudy
5:55 PM 10.4 °F -7.2 °F -5.8 °F 48% 29.71 in 6.2 mi NE 17.3 mph - N/A   Scattered Clouds
6:55 PM 12.2 °F -4.8 °F -13.0 °F 32% 29.74 in 6.2 mi NE 17.3 mph - N/A   Partly Cloudy
7:00 PM 11 °F - -13 °F 17%  in 12 mi NE 17.3 mph - -   Scattered Clouds
7:55 PM 12.2 °F -7.1 °F -20.2 °F 22% 29.74 in 6.2 mi ENE 23.0 mph - N/A   Partly Cloudy
8:55 PM 14.0 °F -6.2 °F -22.0 °F 19% 29.77 in - ENE 27.6 mph - N/A   Clear
9:55 PM 15.8 °F -1.9 °F -18.4 °F 21% 29.77 in - ENE 21.9 mph - N/A   Clear
10:00 PM 15 °F - -19 °F 9%  in 6 mi ENE 21.9 mph - -  
10:55 PM 15.8 °F 0.9 °F -9.4 °F 32% 29.80 in - ENE 15.0 mph - N/A   Clear
11:55 PM 15.8 °F 2.7 °F -4.0 °F 41% 29.80 in - ENE 11.5 mph - N/A   Clear